Location: Angola by the Bay
(38.6709°N, 75.1746°W)
Time: 06:25:36
(UTC+00:00)

DIWATA 2B (PO-101) - Pass Details

Date: 06 December 2024
Orbit: 569 x 582 km, 98.1° (Epoch: 18 January)

Event Time Altitude Azimuth Distance (km) Brightness Sun altitude
Rises 22:22:39 0° 5° (N) 2,791 ? -8.5°
Reaches altitude 10° 22:24:52 10° 359° (N) 1,886 ? -8.9°
Maximum altitude 22:28:44 43° 287° (WNW) 806 ? -9.6°
Drops below altitude 10° 22:32:35 10° 216° (SW) 1,866 ? -10.3°
Sets 22:34:46 0° 209° (SSW) 2,757 ? -10.7°
